Вернуться в каталог

DMSP 5D-2 F13 DEB

АктивенSSO
NORAD 40609·DEBRIS·🇺🇸 United States

Запущен Mar 24, 1995 с Vandenberg Space Force Base

Loading…

Ближайшие Пролёты (ближайшие 24 часа)

TLE

СвежийSource: Space-Track

Эпоха: Sep 12, 2026, 09:04 UTC

1 40609U 95015FG  26255.37809535  .00003130  00000-0  91055-3 0  9999
2 40609  98.6773 301.1585 0004950 112.8867 247.2846 14.44957924592430

Отслеживайте DMSP 5D-2 F13 DEB в реальном времени с AllMySat

Download on the App Store